SWR26W EKCH-LSZH

Flight info

Callsign SWR26W
Flight time 1h 25m
Altitude 40000
Route NEXEN T503 GIMRU DCT MICOS DCT TOLGI DCT SWALM DCT OMOGI/N0480F390 T721 RILAX
Aircraft B77W/H-SDE1E2E3FGHIJ2J3J4J5M1RWXY/LB1D1

Departure

Time 2026-05-05 12:51
Airport Copenhagen Kastrup Airport (EKCH)

Arrival

Time 2026-05-05 14:17
Airport Zürich Airport (LSZH)
Time Latitude Longitude Altitude Speed Heading
2026-05-05 12:24 55.62432 12.65076 29 ft 0 kts 269°
2026-05-05 12:40 55.62432 12.65082 29 ft 3 kts 269°
2026-05-05 12:40 55.62433 12.65129 27 ft 3 kts 269°
2026-05-05 12:41 55.62433 12.65153 26 ft 4 kts 252°
2026-05-05 12:41 55.62456 12.65185 27 ft 4 kts 185°
2026-05-05 12:41 55.62481 12.65186 28 ft 4 kts 179°
2026-05-05 12:41 55.62508 12.65185 26 ft 4 kts 179°
2026-05-05 12:42 55.62524 12.65184 26 ft 0 kts 179°
2026-05-05 12:46 55.62519 12.65184 26 ft 2 kts 179°
2026-05-05 12:46 55.62486 12.65188 28 ft 5 kts 174°
2026-05-05 12:46 55.62448 12.65194 26 ft 6 kts 175°
2026-05-05 12:46 55.62399 12.65198 29 ft 9 kts 177°
2026-05-05 12:47 55.62321 12.65201 29 ft 14 kts 180°
2026-05-05 12:47 55.62217 12.65179 29 ft 15 kts 202°
2026-05-05 12:47 55.62125 12.65083 29 ft 15 kts 213°
2026-05-05 12:47 55.62036 12.64979 29 ft 15 kts 213°
2026-05-05 12:48 55.61939 12.64867 28 ft 19 kts 214°
2026-05-05 12:48 55.61818 12.64727 29 ft 23 kts 213°
2026-05-05 12:48 55.61673 12.64560 29 ft 27 kts 213°
2026-05-05 12:48 55.61506 12.64370 29 ft 30 kts 213°
2026-05-05 12:49 55.61317 12.64152 29 ft 34 kts 213°
2026-05-05 12:49 55.61182 12.63997 29 ft 21 kts 213°
2026-05-05 12:49 55.61049 12.63845 29 ft 25 kts 213°
2026-05-05 12:49 55.60893 12.63664 29 ft 28 kts 213°
2026-05-05 12:50 55.60717 12.63464 28 ft 32 kts 213°
2026-05-05 12:50 55.60577 12.63269 28 ft 21 kts 220°
2026-05-05 12:50 55.60471 12.63278 29 ft 17 kts 137°
2026-05-05 12:50 55.60410 12.63424 30 ft 13 kts 89°
2026-05-05 12:51 55.60475 12.63551 29 ft 20 kts 42°
2026-05-05 12:51 55.60734 12.63957 30 ft 104 kts 41°
2026-05-05 12:51 55.61634 12.65330 202 ft 219 kts 40°
2026-05-05 12:51 55.62915 12.67255 1309 ft 267 kts 38°
2026-05-05 12:52 55.64275 12.69241 2537 ft 228 kts 38°
2026-05-05 12:52 55.65490 12.71019 3349 ft 227 kts 37°
2026-05-05 12:52 55.66709 12.72830 3961 ft 239 kts 38°
2026-05-05 12:52 55.67981 12.74813 4945 ft 249 kts 39°
2026-05-05 12:53 55.69277 12.76828 5001 ft 244 kts 38°
2026-05-05 12:53 55.70480 12.78963 5001 ft 250 kts 55°
2026-05-05 12:53 55.71000 12.81986 5594 ft 269 kts 86°
2026-05-05 12:53 55.70602 12.85293 6609 ft 284 kts 118°
2026-05-05 12:54 55.67412 12.89086 8783 ft 285 kts 167°
2026-05-05 12:54 55.65496 12.90104 9972 ft 289 kts 168°
2026-05-05 12:54 55.63546 12.91207 10881 ft 303 kts 167°
2026-05-05 12:55 55.61424 12.91941 11161 ft 323 kts 186°
2026-05-05 12:55 55.59206 12.90878 11432 ft 345 kts 213°
2026-05-05 12:55 55.57398 12.88062 12096 ft 352 kts 230°
2026-05-05 12:55 55.55724 12.84831 13101 ft 360 kts 229°
2026-05-05 12:56 55.53984 12.81603 14309 ft 364 kts 228°
2026-05-05 12:56 55.52220 12.78385 15416 ft 368 kts 228°
2026-05-05 12:56 55.50447 12.75041 16199 ft 375 kts 230°
2026-05-05 12:56 55.48751 12.71539 16983 ft 377 kts 232°
2026-05-05 12:57 55.47072 12.67957 17789 ft 381 kts 232°
2026-05-05 12:57 55.45381 12.64338 18562 ft 386 kts 232°
2026-05-05 12:57 55.43656 12.60670 18978 ft 391 kts 232°
2026-05-05 12:57 55.41907 12.56977 18951 ft 392 kts 232°
2026-05-05 12:58 55.40159 12.53312 18969 ft 390 kts 232°
2026-05-05 12:58 55.38439 12.49722 18953 ft 389 kts 231°
2026-05-05 12:58 55.36655 12.46007 19552 ft 395 kts 231°
2026-05-05 12:58 55.34897 12.42353 20467 ft 399 kts 231°
2026-05-05 12:59 55.33095 12.38616 21393 ft 403 kts 231°
2026-05-05 12:59 55.31269 12.34833 22220 ft 410 kts 231°
2026-05-05 12:59 55.29409 12.30985 23011 ft 416 kts 231°
2026-05-05 13:00 55.25609 12.23143 24440 ft 426 kts 231°
2026-05-05 13:00 55.23682 12.19175 25191 ft 429 kts 231°
2026-05-05 13:01 55.17333 12.07904 27067 ft 446 kts 218°
2026-05-05 13:01 55.14772 12.04738 27504 ft 455 kts 217°
2026-05-05 13:01 55.12162 12.01577 28112 ft 458 kts 217°
2026-05-05 13:01 55.09550 11.98387 28750 ft 460 kts 217°
2026-05-05 13:02 55.06938 11.95144 29321 ft 462 kts 218°
2026-05-05 13:02 55.04316 11.91844 29812 ft 466 kts 218°
2026-05-05 13:02 55.01689 11.88512 30305 ft 467 kts 218°
2026-05-05 13:02 54.99069 11.85183 30914 ft 465 kts 218°
2026-05-05 13:03 54.96462 11.81873 31538 ft 463 kts 218°
2026-05-05 13:03 54.93866 11.78584 32126 ft 460 kts 218°
2026-05-05 13:03 54.91284 11.75320 32709 ft 459 kts 218°
2026-05-05 13:03 54.88700 11.72060 33260 ft 458 kts 218°
2026-05-05 13:04 54.86125 11.68815 33792 ft 458 kts 218°
2026-05-05 13:04 54.83551 11.65579 34247 ft 457 kts 218°
2026-05-05 13:04 54.80979 11.62352 34702 ft 456 kts 218°
2026-05-05 13:04 54.78443 11.59183 35136 ft 454 kts 218°
2026-05-05 13:05 54.75878 11.55992 35583 ft 454 kts 218°
2026-05-05 13:05 54.73315 11.52810 36006 ft 453 kts 218°
2026-05-05 13:05 54.70761 11.49642 36420 ft 451 kts 218°
2026-05-05 13:05 54.68218 11.46490 36937 ft 448 kts 218°
2026-05-05 13:06 54.65706 11.43381 37592 ft 442 kts 218°
2026-05-05 13:06 54.63211 11.40297 38013 ft 442 kts 218°
2026-05-05 13:06 54.60699 11.37191 38167 ft 446 kts 218°
2026-05-05 13:06 54.58161 11.34059 38273 ft 452 kts 218°
2026-05-05 13:07 54.55589 11.30895 38416 ft 455 kts 218°
2026-05-05 13:07 54.53007 11.27733 38624 ft 457 kts 218°
2026-05-05 13:07 54.50412 11.24564 38831 ft 458 kts 218°
2026-05-05 13:07 54.47811 11.21392 38967 ft 459 kts 217°
2026-05-05 13:08 54.45203 11.18215 39127 ft 460 kts 217°
2026-05-05 13:08 54.42584 11.15028 39252 ft 462 kts 217°
2026-05-05 13:08 54.39954 11.11830 39372 ft 464 kts 217°
2026-05-05 13:08 54.37311 11.08621 39478 ft 466 kts 217°
2026-05-05 13:09 54.34660 11.05410 39588 ft 468 kts 217°
2026-05-05 13:09 54.31926 11.02343 39697 ft 471 kts 212°
2026-05-05 13:09 54.25996 10.97456 39859 ft 478 kts 203°
2026-05-05 13:10 54.19734 10.93575 39951 ft 480 kts 202°
2026-05-05 13:10 54.13448 10.89704 39944 ft 480 kts 202°
2026-05-05 13:11 54.07166 10.85803 39942 ft 480 kts 203°
2026-05-05 13:11 54.00893 10.81895 39927 ft 480 kts 203°
2026-05-05 13:12 53.94620 10.77994 39938 ft 479 kts 203°
2026-05-05 13:12 53.88355 10.74111 39940 ft 479 kts 203°
2026-05-05 13:13 53.82099 10.70247 39939 ft 478 kts 202°
2026-05-05 13:13 53.75849 10.66400 39926 ft 477 kts 202°
2026-05-05 13:14 53.69618 10.62577 39937 ft 476 kts 202°
2026-05-05 13:14 53.63388 10.58767 39936 ft 475 kts 202°
2026-05-05 13:15 53.57177 10.54980 39933 ft 474 kts 202°
2026-05-05 13:15 53.51018 10.51236 39939 ft 474 kts 202°
2026-05-05 13:16 53.44807 10.47472 39941 ft 474 kts 202°
2026-05-05 13:16 53.38596 10.43720 39919 ft 474 kts 202°
2026-05-05 13:17 53.32396 10.39987 39921 ft 473 kts 202°
2026-05-05 13:17 53.26210 10.36273 39910 ft 473 kts 202°
2026-05-05 13:18 53.20009 10.32561 39922 ft 473 kts 202°
2026-05-05 13:18 53.13802 10.28858 39922 ft 474 kts 202°
2026-05-05 13:19 53.07583 10.25158 39919 ft 476 kts 202°
2026-05-05 13:19 53.01336 10.21454 39915 ft 477 kts 202°
2026-05-05 13:20 52.95085 10.17759 39913 ft 477 kts 202°
2026-05-05 13:20 52.88824 10.14069 39918 ft 478 kts 202°
2026-05-05 13:21 52.82558 10.10387 39916 ft 478 kts 202°
2026-05-05 13:21 52.76285 10.06713 39908 ft 478 kts 202°
2026-05-05 13:22 52.70008 10.03047 39911 ft 479 kts 202°
2026-05-05 13:22 52.63727 9.99391 39911 ft 479 kts 202°
2026-05-05 13:23 52.57446 9.95745 39901 ft 479 kts 202°
2026-05-05 13:23 52.51173 9.92115 39913 ft 478 kts 202°
2026-05-05 13:24 52.44891 9.88492 39906 ft 478 kts 202°
2026-05-05 13:24 52.38662 9.84909 39910 ft 477 kts 202°
2026-05-05 13:25 52.32407 9.81322 39899 ft 476 kts 202°
2026-05-05 13:25 52.26161 9.77751 39897 ft 475 kts 201°
2026-05-05 13:26 52.19941 9.74206 39889 ft 473 kts 201°
2026-05-05 13:26 52.13717 9.70668 39877 ft 473 kts 201°
2026-05-05 13:27 52.07516 9.67154 39872 ft 471 kts 201°
2026-05-05 13:27 52.01331 9.63659 39876 ft 470 kts 201°
2026-05-05 13:28 51.96199 9.60766 39872 ft 469 kts 201°
2026-05-05 13:28 51.90031 9.57297 39868 ft 469 kts 201°
2026-05-05 13:29 51.83863 9.53877 39860 ft 469 kts 199°
2026-05-05 13:29 51.77481 9.51563 39853 ft 471 kts 193°
2026-05-05 13:30 51.71020 9.49697 39863 ft 472 kts 193°
2026-05-05 13:30 51.64547 9.47799 39845 ft 473 kts 193°
2026-05-05 13:31 51.58087 9.45877 39843 ft 471 kts 193°
2026-05-05 13:31 51.51661 9.43961 39852 ft 469 kts 193°
2026-05-05 13:32 51.45261 9.42059 39858 ft 467 kts 193°
2026-05-05 13:32 51.39457 9.40341 39853 ft 466 kts 193°
2026-05-05 13:33 51.33086 9.38460 39855 ft 465 kts 193°
2026-05-05 13:33 51.26733 9.36589 39833 ft 464 kts 193°
2026-05-05 13:34 51.20385 9.34725 39837 ft 464 kts 193°
2026-05-05 13:34 51.14039 9.32867 39828 ft 463 kts 192°
2026-05-05 13:35 51.07691 9.31014 39827 ft 463 kts 192°
2026-05-05 13:35 51.01349 9.29168 39831 ft 463 kts 192°
2026-05-05 13:36 50.95009 9.27327 39817 ft 464 kts 192°
2026-05-05 13:36 50.88666 9.25490 39822 ft 464 kts 192°
2026-05-05 13:37 50.82354 9.23668 39821 ft 464 kts 192°
2026-05-05 13:37 50.76001 9.21837 39816 ft 464 kts 192°
2026-05-05 13:38 50.69637 9.20048 39812 ft 465 kts 191°
2026-05-05 13:38 50.63220 9.18686 39816 ft 466 kts 189°
2026-05-05 13:39 50.56788 9.17447 39813 ft 466 kts 189°
2026-05-05 13:39 50.50358 9.16160 39800 ft 466 kts 189°
2026-05-05 13:40 50.43931 9.14837 39808 ft 466 kts 189°
2026-05-05 13:40 50.37499 9.13505 39811 ft 466 kts 189°
2026-05-05 13:41 50.31054 9.12175 39816 ft 468 kts 189°
2026-05-05 13:41 50.24581 9.10845 39798 ft 469 kts 189°
2026-05-05 13:42 50.18121 9.09524 39805 ft 468 kts 189°
2026-05-05 13:42 50.11668 9.08207 39807 ft 467 kts 189°
2026-05-05 13:43 50.05229 9.06896 39807 ft 467 kts 188°
2026-05-05 13:43 49.98829 9.05595 39808 ft 467 kts 188°
2026-05-05 13:44 49.92393 9.04292 39819 ft 467 kts 188°
2026-05-05 13:44 49.85952 9.02991 39819 ft 467 kts 188°
2026-05-05 13:45 49.79506 9.01692 39813 ft 468 kts 188°
2026-05-05 13:45 49.73052 9.00394 39814 ft 468 kts 188°
2026-05-05 13:46 49.66584 8.99098 39824 ft 469 kts 188°
2026-05-05 13:46 49.60138 8.97556 39822 ft 468 kts 191°
2026-05-05 13:47 49.53732 8.95702 39825 ft 469 kts 191°
2026-05-05 13:47 49.47325 8.93879 39822 ft 466 kts 191°
2026-05-05 13:48 49.44149 8.93002 39653 ft 461 kts 191°
2026-05-05 13:48 49.40992 8.92138 39137 ft 458 kts 191°
2026-05-05 13:48 49.37865 8.91286 38565 ft 455 kts 191°
2026-05-05 13:48 49.34758 8.90440 37825 ft 453 kts 191°
2026-05-05 13:49 49.31670 8.89599 37148 ft 449 kts 190°
2026-05-05 13:49 49.28606 8.88765 36498 ft 445 kts 190°
2026-05-05 13:49 49.25570 8.87939 35834 ft 442 kts 190°
2026-05-05 13:49 49.22548 8.87118 35133 ft 440 kts 189°
2026-05-05 13:50 49.19542 8.86303 34402 ft 438 kts 189°
2026-05-05 13:50 49.16540 8.85487 33649 ft 437 kts 189°
2026-05-05 13:50 49.13553 8.84673 32781 ft 436 kts 189°
2026-05-05 13:50 49.10570 8.83859 31963 ft 435 kts 188°
2026-05-05 13:51 49.07586 8.83047 31132 ft 436 kts 188°
2026-05-05 13:51 49.04603 8.82236 30327 ft 436 kts 188°
2026-05-05 13:51 49.01625 8.81426 29714 ft 432 kts 188°
2026-05-05 13:51 48.98718 8.80637 29040 ft 429 kts 188°
2026-05-05 13:52 48.95775 8.79841 28461 ft 431 kts 188°
2026-05-05 13:52 48.92800 8.79037 27864 ft 439 kts 188°
2026-05-05 13:52 48.89782 8.78223 27252 ft 440 kts 189°
2026-05-05 13:52 48.86789 8.77414 26657 ft 434 kts 189°
2026-05-05 13:53 48.83842 8.76623 26072 ft 427 kts 189°
2026-05-05 13:53 48.80937 8.75845 25500 ft 421 kts 189°
2026-05-05 13:53 48.78075 8.75080 24942 ft 415 kts 189°
2026-05-05 13:53 48.75242 8.74324 24407 ft 410 kts 189°
2026-05-05 13:54 48.72447 8.73579 23858 ft 406 kts 189°
2026-05-05 13:54 48.69678 8.72841 23281 ft 402 kts 189°
2026-05-05 13:54 48.66936 8.72110 22668 ft 398 kts 189°
2026-05-05 13:54 48.64213 8.71386 22110 ft 393 kts 189°
2026-05-05 13:55 48.61534 8.70674 21578 ft 388 kts 189°
2026-05-05 13:55 48.58895 8.69973 21055 ft 384 kts 189°
2026-05-05 13:55 48.56271 8.69277 20544 ft 381 kts 190°
2026-05-05 13:55 48.53667 8.68587 20051 ft 382 kts 190°
2026-05-05 13:56 48.51015 8.67885 19552 ft 391 kts 190°
2026-05-05 13:56 48.48317 8.67171 19012 ft 394 kts 190°
2026-05-05 13:56 48.45623 8.66459 18471 ft 391 kts 190°
2026-05-05 13:56 48.42995 8.65765 17942 ft 386 kts 190°
2026-05-05 13:57 48.40363 8.65072 17361 ft 382 kts 191°
2026-05-05 13:57 48.37731 8.64376 16823 ft 376 kts 191°
2026-05-05 13:57 48.35212 8.63647 16314 ft 371 kts 192°
2026-05-05 13:57 48.32659 8.62868 15808 ft 367 kts 193°
2026-05-05 13:58 48.30209 8.62116 15330 ft 362 kts 193°
2026-05-05 13:58 48.27750 8.61366 14851 ft 359 kts 193°
2026-05-05 13:58 48.25315 8.60628 14375 ft 356 kts 193°
2026-05-05 13:58 48.22895 8.59896 13877 ft 353 kts 193°
2026-05-05 13:59 48.18118 8.58466 12880 ft 348 kts 193°
2026-05-05 13:59 48.15757 8.57762 12393 ft 344 kts 193°
2026-05-05 14:00 48.11097 8.56370 11450 ft 338 kts 193°
2026-05-05 14:00 48.09544 8.55909 11161 ft 336 kts 193°
2026-05-05 14:00 48.06544 8.55012 10828 ft 324 kts 193°
2026-05-05 14:00 48.04370 8.54363 10675 ft 313 kts 194°
2026-05-05 14:01 48.02277 8.53739 10545 ft 302 kts 194°
2026-05-05 14:01 48.00251 8.53135 10413 ft 292 kts 194°
2026-05-05 14:01 47.98290 8.52551 10296 ft 282 kts 194°
2026-05-05 14:01 47.96404 8.51990 10180 ft 273 kts 194°
2026-05-05 14:02 47.94562 8.51445 10065 ft 264 kts 194°
2026-05-05 14:02 47.92795 8.50914 9950 ft 255 kts 194°
2026-05-05 14:02 47.91075 8.50392 9852 ft 251 kts 194°
2026-05-05 14:02 47.89341 8.49864 9559 ft 258 kts 195°
2026-05-05 14:03 47.87567 8.49322 9256 ft 261 kts 195°
2026-05-05 14:03 47.85789 8.48782 8924 ft 260 kts 194°
2026-05-05 14:03 47.85084 8.48568 8815 ft 260 kts 194°
2026-05-05 14:03 47.84090 8.48267 8636 ft 259 kts 194°
2026-05-05 14:04 47.82333 8.47736 8326 ft 256 kts 194°
2026-05-05 14:04 47.80591 8.47212 8026 ft 254 kts 194°
2026-05-05 14:04 47.78867 8.46690 7735 ft 252 kts 194°
2026-05-05 14:04 47.77152 8.46173 7409 ft 251 kts 194°
2026-05-05 14:05 47.75444 8.45655 7122 ft 249 kts 194°
2026-05-05 14:05 47.73757 8.45147 6925 ft 244 kts 194°
2026-05-05 14:05 47.72114 8.44657 6891 ft 240 kts 194°
2026-05-05 14:05 47.70452 8.44154 6857 ft 247 kts 194°
2026-05-05 14:06 47.68855 8.43305 6835 ft 245 kts 215°
2026-05-05 14:06 47.67580 8.41586 6852 ft 250 kts 228°
2026-05-05 14:06 47.66419 8.39696 6739 ft 247 kts 227°
2026-05-05 14:06 47.65390 8.37724 6280 ft 247 kts 239°
2026-05-05 14:07 47.64370 8.35651 5698 ft 250 kts 221°
2026-05-05 14:07 47.63184 8.33828 5244 ft 247 kts 245°
2026-05-05 14:07 47.63064 8.31382 4871 ft 246 kts 287°
2026-05-05 14:07 47.64033 8.29316 4604 ft 245 kts 310°
2026-05-05 14:08 47.65188 8.27501 4647 ft 232 kts 310°
2026-05-05 14:08 47.66260 8.25773 4723 ft 230 kts 307°
2026-05-05 14:08 47.67203 8.23832 4396 ft 229 kts 292°
2026-05-05 14:08 47.67653 8.21674 4561 ft 221 kts 285°
2026-05-05 14:09 47.68465 8.19720 4563 ft 223 kts 313°
2026-05-05 14:09 47.69626 8.18226 4528 ft 223 kts 327°
2026-05-05 14:09 47.71157 8.17726 4437 ft 236 kts
2026-05-05 14:09 47.72644 8.18690 4493 ft 235 kts 36°
2026-05-05 14:10 47.73655 8.20570 4553 ft 235 kts 71°
2026-05-05 14:10 47.73788 8.22945 4814 ft 232 kts 107°
2026-05-05 14:10 47.72995 8.24974 4885 ft 229 kts 143°
2026-05-05 14:10 47.71694 8.26286 4972 ft 226 kts 151°
2026-05-05 14:11 47.70347 8.27554 4955 ft 231 kts 152°
2026-05-05 14:11 47.68985 8.28832 4980 ft 236 kts 152°
2026-05-05 14:11 47.67538 8.30181 5013 ft 257 kts 152°
2026-05-05 14:11 47.66019 8.31604 5003 ft 256 kts 152°
2026-05-05 14:12 47.64554 8.32987 5028 ft 242 kts 152°
2026-05-05 14:12 47.63182 8.34282 5017 ft 227 kts 152°
2026-05-05 14:12 47.61888 8.35499 4895 ft 217 kts 152°
2026-05-05 14:12 47.60640 8.36715 4630 ft 215 kts 147°
2026-05-05 14:13 47.59509 8.38154 4354 ft 213 kts 141°
2026-05-05 14:13 47.58445 8.39629 4059 ft 204 kts 140°
2026-05-05 14:13 47.57450 8.41001 3864 ft 190 kts 140°
2026-05-05 14:13 47.56494 8.42308 3637 ft 184 kts 140°
2026-05-05 14:14 47.55548 8.43601 3392 ft 184 kts 140°
2026-05-05 14:14 47.54614 8.44875 3150 ft 182 kts 140°
2026-05-05 14:14 47.53997 8.45716 2978 ft 182 kts 140°
2026-05-05 14:14 47.53076 8.46974 2760 ft 180 kts 141°
2026-05-05 14:15 47.51837 8.48668 2435 ft 182 kts 140°
2026-05-05 14:15 47.51231 8.49500 2279 ft 179 kts 140°
2026-05-05 14:15 47.50332 8.50721 2041 ft 169 kts 140°
2026-05-05 14:15 47.49252 8.52198 1703 ft 151 kts 140°
2026-05-05 14:16 47.48739 8.52896 1565 ft 145 kts 140°
2026-05-05 14:16 47.48027 8.53860 1422 ft 134 kts 139°
2026-05-05 14:16 47.47401 8.54707 1406 ft 106 kts 136°
2026-05-05 14:16 47.46985 8.55276 1404 ft 62 kts 137°
2026-05-05 14:17 47.46755 8.55574 1408 ft 35 kts 146°
2026-05-05 14:17 47.46566 8.55688 1403 ft 24 kts 166°
2026-05-05 14:17 47.46418 8.55746 1409 ft 19 kts 159°
2026-05-05 14:17 47.46308 8.55859 1415 ft 19 kts 136°
2026-05-05 14:18 47.46208 8.55986 1417 ft 19 kts 154°
2026-05-05 14:18 47.46073 8.55986 1414 ft 19 kts 185°
2026-05-05 14:18 47.45951 8.55931 1418 ft 19 kts 236°
2026-05-05 14:18 47.45948 8.55730 1408 ft 20 kts 276°
2026-05-05 14:19 47.45961 8.55552 1411 ft 18 kts 276°
2026-05-05 14:19 47.45975 8.55445 1410 ft 7 kts 310°
2026-05-05 14:19 47.46010 8.55431 1410 ft 5 kts 355°
2026-05-05 14:19 47.46022 8.55429 1407 ft 3 kts 353°
2026-05-05 14:20 47.46037 8.55431 1408 ft 0 kts
2026-05-05 14:20 47.46044 8.55431 1408 ft 2 kts
2026-05-05 14:20 47.46054 8.55433 1408 ft 0 kts
2026-05-05 14:20 47.46058 8.55433 1408 ft 0 kts